Temperature
28 28 26 26 27 27 27 27 27 27 28 27 26 26 26 26 25 25 25 25 24 23 23 22 21 22 22 22 22 23 23 22 22 21 21 21 20 20 20 19 19 19 19 19
28 27 27 27 27 27 27 26 26 26 27 26 25 25 26 25 24 23 23 23 22 22 21 21 20 20 20 20 21 21 22 22 22 21 21 20 20 20 19 19 19 19 19 18
27 26 27 27 27 25 25 25 24 24 25 25 25 24 25 25 24 22 21 21 21 20 20 20 19 19 19 19 19 20 20 21 22 21 21 20 20 19 19 19 19 18 18 18
27 26 26 26 25 24 23 24 24 24 23 23 24 23 23 22 20 19 19 19 19 19 19 18 18 17 17 17 18 19 20 20 21 21 21 20 20 19 19 19 18 18 18 18
25 25 24 24 23 24 23 24 23 23 23 23 23 23 22 19 17 17 17 17 17 18 18 17 17 16 16 16 17 18 18 19 20 20 20 20 19 19 18 18 18 18 18 18
25 25 24 23 24 24 24 24 24 24 23 22 23 22 18 16 16 16 16 16 16 16 16 16 16 15 16 16 16 17 17 18 19 19 19 19 19 18 18 17 17 17 17 17
25 24 23 23 22 22 23 22 21 22 22 21 22 19 15 15 15 15 15 15 15 15 15 15 15 15 15 15 15 16 16 16 17 18 18 18 17 17 17 16 16 16 16 16
25 23 22 22 21 20 21 21 19 18 19 20 20 17 14 14 14 14 14 14 14 14 14 14 14 14 14 14 14 15 15 15 16 16 16 16 16 16 16 16 16 16 15 15
23 22 22 22 22 21 20 19 20 19 19 19 18 16 15 14 14 13 13 13 13 13 13 13 13 13 13 13 14 14 14 14 15 15 15 15 15 15 15 15 15 15 15 15
23 22 22 22 21 20 20 19 19 18 17 17 17 14 12 12 12 13 13 12 12 12 12 12 12 13 13 13 13 13 14 14 14 14 14 14 14 14 14 14 14 14 14 15
22 22 22 21 19 18 18 18 18 18 17 15 14 13 12 11 11 11 12 12 12 12 12 12 12 12 13 13 13 13 13 13 13 14 14 14 14 14 14 14 14 15 15 15
22 22 21 19 19 19 18 17 17 16 15 15 13 12 12 12 11 12 12 11 11 11 11 12 12 12 12 13 13 13 13 13 13 13 14 14 14 14 14 14 15 15 15 16
20 21 20 18 19 19 18 17 17 16 15 14 13 12 13 12 12 12 12 12 12 12 12 12 12 12 12 12 12 13 13 13 13 13 13 14 14 14 14 15 15 15 15 16
18 21 19 18 17 17 17 17 17 16 15 13 12 12 13 13 13 13 12 12 12 12 12 12 12 12 12 12 12 12 12 13 13 13 13 13 14 14 14 14 15 15 15 15
21 20 19 18 18 18 17 17 17 16 15 14 13 13 13 13 13 13 13 13 13 13 13 13 13 13 12 12 12 12 12 13 13 13 13 13 13 14 14 14 14 15 15 15
22 20 20 19 19 19 18 17 17 16 16 15 15 14 15 14 14 14 14 14 14 14 14 14 13 13 13 13 13 12 12 12 12 13 13 13 13 13 13 14 14 14 15 15
21 21 20 20 19 19 18 18 17 16 16 16 15 15 16 15 15 15 15 15 15 14 14 14 14 14 14 13 13 13 12 12 12 12 12 12 12 13 13 13 13 13 14 14
21 21 21 21 20 18 17 18 18 17 17 17 16 17 16 16 16 15 15 15 15 15 15 15 15 14 14 14 14 13 13 12 12 12 12 12 12 12 12 13 13 13 13 13
21 20 20 21 20 18 17 18 18 18 17 18 17 17 17 17 16 16 16 15 15 15 15 15 15 15 14 14 14 13 13 12 12 12 12 12 12 12 12 12 12 12 12 12
20 20 20 20 20 19 18 19 18 18 17 18 18 17 17 17 16 16 16 15 15 15 15 15 15 15 14 14 14 13 13 12 12 12 11 11 12 12 12 12 12 12 12 12
20 20 19 20 20 19 19 18 18 17 17 18 17 17 17 17 16 16 16 15 15 15 15 15 15 15 14 14 14 13 13 12 12 12 12 12 12 12 12 12 11 11 11 11
21 21 21 20 20 18 18 18 18 18 18 18 17 17 16 16 16 16 16 15 15 15 15 15 15 15 15 14 14 13 13 13 12 12 12 12 12 12 11 11 11 11 11 11
21 21 20 20 18 18 18 18 18 18 18 17 17 16 16 16 16 16 16 15 15 15 15 15 15 15 15 15 14 14 13 13 13 12 12 12 12 11 11 11 11 11 11 11
22 21 20 20 19 18 17 18 17 17 17 16 16 16 16 16 16 16 16 15 15 15 15 15 15 15 15 15 15 14 14 14 14 13 13 12 12 11 11 11 11 11 11 11
22 20 20 20 20 18 17 17 17 16 16 16 16 15 15 15 15 15 15 15 15 15 15 15 15 15 15 15 15 15 14 14 14 14 13 12 12 11 11 11 11 11 11 10
22 21 20 20 20 19 17 17 17 16 16 16 16 16 15 15 15 15 15 15 15 15 15 15 15 15 15 15 15 15 14 14 14 13 13 12 12 11 11 11 11 10 10 10
Wind_Speed
4 4 4 7 8 10 12 13 14 11 5 5 8 9 4 2 2 1 2 5 7 9 10 10 10 10 10 9 9 8 3 6 6 6 6 6 5 4 4 4 5 5 1 2
6 4 8 7 8 10 12 13 13 10 11 10 11 12 8 1 3 6 7 9 10 10 10 10 11 11 12 11 10 10 7 4 6 6 7 6 6 5 5 4 4 5 3 1
5 8 8 8 9 10 13 12 13 13 14 14 15 12 8 2 6 8 9 10 10 10 10 11 11 11 12 12 11 11 10 7 5 6 6 6 5 5 4 4 4 4 4 3
2 8 9 10 11 12 12 13 14 15 15 11 11 10 5 6 12 13 13 12 12 11 11 11 11 12 12 12 12 12 10 8 6 4 7 8 7 6 5 5 5 5 4 3
7 10 10 11 12 12 11 15 18 18 15 15 13 11 3 12 14 16 16 15 15 14 13 13 12 11 12 13 12 11 10 8 6 2 4 7 6 5 5 5 7 6 5 4
8 8 8 10 12 11 13 16 18 15 11 11 8 7 5 10 14 16 16 16 16 16 15 14 13 12 11 11 11 11 9 8 8 6 3 5 7 8 7 6 5 4 4 3
7 10 10 12 13 12 15 13 7 5 3 3 8 5 7 13 16 16 16 17 17 16 15 14 13 12 11 11 10 10 10 9 9 8 7 6 7 8 7 6 5 4 3 2
4 6 9 11 10 10 13 12 7 6 7 9 7 5 7 16 17 17 17 17 17 16 14 13 12 11 10 10 10 9 9 9 9 8 8 7 8 6 5 5 4 3 2 2
7 6 10 10 9 11 11 11 9 8 10 8 3 5 7 19 21 21 20 19 18 16 15 13 13 12 10 10 10 9 8 8 8 8 8 8 7 7 6 5 3 2 2 3
7 2 7 7 8 13 10 10 6 6 6 5 5 6 10 19 21 22 20 19 17 15 14 13 12 11 10 9 8 9 9 9 8 7 6 6 5 4 4 3 2 1 1 1
8 4 5 6 8 12 11 11 8 5 4 4 5 4 9 13 16 18 18 16 15 15 15 13 12 12 11 10 9 9 9 9 8 7 6 6 5 3 2 2 1 1 2 3
6 5 4 9 8 8 10 10 8 5 5 4 2 3 8 10 13 14 14 15 15 15 14 13 13 13 12 11 10 10 10 9 9 7 6 5 5 4 3 1 1 3 3 4
7 6 1 5 4 7 9 11 9 4 3 4 3 4 7 9 11 12 12 12 12 13 13 13 13 13 12 11 10 10 9 8 8 7 7 6 6 6 5 4 4 4 4 4
4 5 9 7 6 6 8 10 11 7 4 4 3 4 7 10 12 12 11 11 11 11 11 11 10 10 10 9 9 9 9 9 8 8 8 8 7 6 6 6 5 5 5 5
4 6 9 8 5 5 7 8 10 10 6 4 3 4 6 8 9 9 10 9 10 10 10 9 8 8 7 7 7 7 6 6 6 7 7 7 6 5 5 6 7 7 7 7
3 3 5 5 4 3 5 6 6 6 6 4 4 5 4 4 6 8 10 10 10 10 10 9 7 7 7 7 7 6 6 5 6 7 7 7 7 8 8 8 8 8 8 9
0 2 2 3 5 3 1 4 4 5 4 4 5 4 4 4 6 8 9 10 10 10 10 9 8 7 7 6 6 7 7 7 8 8 8 8 8 8 9 9 8 8 8 8
3 2 3 2 4 0 6 6 5 3 3 2 2 2 2 2 3 5 7 8 9 10 9 9 8 7 8 7 6 7 8 8 8 8 8 9 9 9 8 8 8 8 7 7
4 3 3 3 2 5 6 6 5 2 3 2 2 3 3 1 3 8 9 8 8 8 8 7 8 8 8 8 8 8 9 8 9 8 8 8 8 8 8 8 8 7 6 6
2 3 4 4 5 2 7 9 5 2 3 4 2 4 7 6 5 7 8 8 7 7 7 7 7 8 8 7 7 8 8 8 9 8 8 7 7 7 8 7 6 6 5 6
4 5 5 5 3 5 9 9 5 2 5 6 4 5 7 9 7 5 7 7 6 5 6 7 6 6 6 6 6 7 7 7 6 6 6 6 7 6 7 6 6 6 5 5
4 2 2 2 2 3 11 8 3 6 8 6 6 6 6 5 5 6 6 6 6 6 6 6 5 5 4 4 5 6 5 4 4 4 5 5 6 7 7 6 7 6 7 7
3 3 3 2 3 8 9 5 4 6 7 6 7 5 4 4 5 6 6 6 6 6 5 5 5 5 4 4 4 4 2 2 2 3 3 4 6 6 7 7 8 7 7 6
3 3 1 2 7 10 8 7 6 4 5 7 5 4 3 4 5 5 5 6 6 6 5 5 5 6 5 3 2 3 2 2 1 3 3 5 6 6 7 6 7 7 7 7
0 5 4 5 6 9 9 8 9 7 6 6 5 4 3 3 4 5 5 6 5 5 5 5 5 5 7 3 3 3 3 5 2 3 4 5 5 5 6 6 6 6 6 5
5 6 5 3 7 7 10 11 11 10 8 7 5 4 3 3 4 5 5 5 5 6 6 6 5 5 6 5 4 4 3 5 4 5 5 4 3 4 5 5 5 9 8 8
Wind_Direction
246 274 0 10 354 327 313 303 300 304 335 329 305 297 270 187 156 92 23 21 29 25 18 27 6 355 343 333 324 308 245 193 191 175 179 173 171 161 143 138 135 141 126 92
263 41 23 351 322 312 311 306 308 319 341 330 304 290 288 160 95 59 29 21 23 20 7 16 8 359 352 341 336 324 304 247 203 186 178 179 166 157 150 140 133 130 139 109
20 40 3 333 330 344 325 335 337 326 319 301 288 279 278 201 89 67 35 18 16 11 5 5 3 360 352 346 339 324 315 292 245 199 176 168 156 150 144 138 120 96 91 73
35 33 2 346 357 354 319 337 325 307 299 291 291 289 324 36 49 32 19 16 4 6 8 5 2 358 352 347 340 329 321 310 287 213 179 172 168 167 166 151 128 107 84 69
69 41 19 4 349 330 316 314 298 285 277 277 280 278 360 36 26 15 5 5 357 1 2 360 1 0 356 353 348 341 333 334 334 294 185 170 159 157 143 133 128 122 108 83
98 83 50 7 336 334 325 313 294 268 253 260 292 293 45 22 10 4 359 358 354 356 355 357 0 1 360 359 357 356 359 13 16 22 66 129 137 131 129 127 126 116 109 98
129 91 61 23 1 355 344 339 329 326 296 314 10 36 52 17 10 3 354 353 352 355 355 355 357 359 4 5 5 9 19 28 31 37 46 77 114 125 130 130 130 126 118 113
343 87 49 28 13 349 346 355 351 325 324 326 357 61 57 16 3 357 357 355 354 353 354 358 2 4 9 11 13 20 27 33 39 51 56 69 90 99 107 111 115 121 138 172
356 73 73 41 16 15 353 357 332 306 303 302 28 63 25 4 358 355 355 354 354 353 356 4 7 7 12 17 18 24 36 44 49 57 62 69 79 88 99 106 111 132 181 182
344 341 81 59 29 28 13 354 345 348 343 334 13 35 357 349 349 348 349 351 352 356 2 8 10 11 16 19 22 31 42 48 50 58 66 75 76 87 101 106 115 166 202 175
337 310 111 77 42 23 18 16 1 345 9 353 351 22 358 343 343 342 346 354 3 8 12 15 16 18 22 25 31 35 36 39 43 49 55 59 60 61 63 85 116 243 252 246
12 322 64 88 89 59 39 21 11 11 15 15 10 14 352 340 337 345 357 5 9 15 19 21 21 22 25 29 32 34 32 32 31 34 38 41 39 34 22 7 304 271 262 262
343 326 7 136 129 46 34 26 23 34 43 30 17 341 345 344 349 360 5 9 12 17 23 22 21 22 24 27 29 32 28 27 24 23 25 29 26 17 5 350 329 306 291 285
294 25 47 60 58 34 35 34 36 46 49 47 33 348 353 358 1 3 9 12 14 21 25 26 21 20 24 28 32 32 29 27 31 32 32 32 25 10 353 346 334 333 334 328
307 70 81 89 89 70 61 50 49 51 51 57 40 24 1 357 359 0 7 11 18 23 25 27 23 19 25 28 30 32 32 31 35 40 40 33 24 20 12 8 5 4 2 0
351 105 132 140 136 108 80 71 62 60 53 65 56 38 9 359 6 9 12 15 21 23 26 28 28 24 29 33 34 32 35 38 42 40 35 28 29 29 25 24 22 10 12 13
358 281 278 153 158 213 106 92 82 73 61 47 44 27 8 14 24 20 15 20 24 24 23 19 26 29 30 41 51 46 41 43 42 44 43 35 33 31 30 29 23 16 22 22
326 310 285 253 194 303 100 116 123 115 97 75 42 19 5 356 63 49 30 25 23 20 17 12 21 35 26 28 52 64 54 47 42 40 45 41 35 29 28 30 29 25 25 24
336 314 294 305 312 127 147 164 172 171 122 118 35 20 351 252 124 58 42 35 28 17 9 11 18 31 32 28 38 53 54 47 39 35 40 42 36 29 28 29 27 25 25 27
222 258 282 289 304 36 127 138 153 208 155 133 82 33 18 41 69 39 33 36 32 24 10 12 21 25 25 29 36 44 51 47 39 30 31 36 38 35 29 27 28 26 27 26
206 206 240 278 301 96 122 135 170 226 125 129 102 64 48 47 46 29 28 33 28 32 18 10 16 24 19 23 42 46 43 46 44 32 28 32 31 40 39 23 23 25 22 25
295 274 250 274 270 143 142 158 192 105 119 129 102 74 61 48 43 33 31 33 23 24 26 10 360 359 16 27 38 57 47 43 55 42 31 45 45 35 33 28 26 23 19 27
233 314 343 7 72 109 150 160 112 126 137 120 102 86 65 47 42 31 24 30 21 17 23 358 343 347 8 40 39 45 41 15 75 65 37 54 66 61 39 32 30 24 23 26
167 116 273 255 161 161 178 157 147 164 125 113 108 102 64 35 33 25 20 29 19 9 5 348 357 5 351 5 47 41 11 323 132 108 75 69 65 67 59 41 37 39 27 20
235 152 219 240 148 151 183 181 170 170 150 143 137 113 79 41 28 11 20 28 9 353 352 5 17 347 322 340 58 66 12 334 6 87 81 80 81 86 82 69 44 43 53 38
219 189 205 238 172 173 185 185 176 170 173 167 156 135 109 71 34 11 17 14 1 356 0 5 359 335 332 356 34 73 40 342 17 63 62 63 78 95 116 116 91 51 56 53
Height
1500 1501 1505 1505 1503 1505 1504 1505 1504 1498 1494 1498 1501 1501 1499 1500 1502 1503 1505 1506 1507 1509 1509 1509 1509 1509 1508 1508 1508 1509 1509 1509 1512 1513 1515 1517 1519 1521 1524 1526 1528 1531 1534 1536
1500 1506 1505 1504 1503 1504 1504 1506 1504 1499 1497 1500 1502 1501 1498 1500 1502 1505 1508 1509 1509 1510 1511 1510 1509 1508 1507 1506 1505 1505 1505 1506 1507 1508 1510 1512 1514 1516 1519 1522 1523 1526 1530 1533
1505 1510 1507 1506 1506 1509 1511 1511 1511 1511 1505 1502 1503 1504 1501 1499 1504 1508 1511 1512 1513 1513 1512 1511 1510 1508 1506 1504 1502 1501 1501 1502 1502 1503 1505 1507 1508 1510 1514 1517 1519 1521 1525 1528
1505 1509 1510 1510 1512 1516 1519 1511 1512 1511 1513 1512 1506 1515 1507 1504 1510 1514 1516 1516 1517 1514 1512 1511 1510 1507 1505 1502 1500 1498 1497 1497 1497 1498 1499 1501 1502 1504 1506 1511 1514 1517 1520 1523
1513 1515 1518 1520 1520 1518 1517 1513 1510 1508 1509 1511 1507 1512 1515 1516 1523 1524 1524 1521 1519 1516 1513 1512 1509 1506 1503 1500 1497 1495 1493 1492 1492 1493 1494 1496 1497 1499 1503 1507 1509 1512 1516 1519
1514 1517 1522 1525 1521 1517 1514 1510 1503 1497 1503 1516 1509 1513 1531 1533 1535 1531 1528 1524 1522 1518 1514 1511 1508 1505 1501 1498 1495 1492 1490 1489 1488 1489 1490 1492 1494 1496 1498 1501 1505 1509 1511 1514
1516 1520 1524 1526 1525 1522 1518 1520 1521 1517 1516 1517 1511 1522 1546 1542 1539 1536 1533 1527 1523 1518 1515 1511 1507 1504 1500 1497 1494 1491 1489 1488 1487 1487 1488 1490 1491 1493 1496 1499 1503 1505 1507 1510
1518 1527 1529 1529 1531 1532 1525 1525 1538 1543 1535 1526 1519 1535 1548 1546 1543 1539 1533 1528 1523 1519 1515 1511 1507 1504 1501 1497 1495 1492 1490 1488 1487 1487 1488 1490 1491 1493 1495 1498 1501 1504 1505 1508
1526 1531 1529 1532 1532 1533 1533 1533 1529 1533 1531 1530 1532 1542 1543 1545 1543 1539 1533 1529 1524 1519 1515 1511 1507 1504 1501 1498 1496 1494 1492 1490 1489 1489 1490 1491 1492 1494 1496 1498 1500 1503 1505 1507
1527 1531 1531 1533 1534 1536 1537 1536 1534 1540 1548 1548 1545 1555 1562 1554 1549 1542 1536 1532 1526 1520 1515 1511 1507 1504 1502 1500 1498 1496 1495 1494 1493 1492 1493 1494 1494 1496 1498 1499 1501 1504 1506 1509
1530 1529 1533 1535 1544 1547 1544 1544 1542 1541 1545 1557 1563 1569 1565 1561 1554 1548 1540 1534 1527 1522 1517 1513 1510 1506 1504 1502 1500 1499 1498 1497 1497 1497 1497 1497 1498 1499 1501 1502 1504 1506 1508 1509
1532 1532 1534 1543 1545 1545 1547 1548 1548 1554 1557 1558 1566 1574 1564 1562 1556 1549 1542 1536 1531 1525 1521 1517 1513 1510 1507 1505 1503 1502 1501 1501 1501 1501 1501 1502 1502 1503 1504 1505 1506 1508 1509 1510
1539 1535 1541 1550 1551 1549 1550 1550 1549 1551 1557 1564 1571 1575 1563 1560 1555 1550 1545 1539 1534 1530 1526 1522 1518 1514 1511 1509 1507 1506 1505 1505 1504 1504 1504 1505 1505 1506 1506 1507 1507 1509 1510 1510
1543 1538 1546 1557 1560 1555 1556 1554 1552 1554 1562 1568 1572 1571 1563 1559 1555 1551 1547 1542 1538 1534 1531 1527 1523 1520 1517 1514 1512 1510 1509 1508 1507 1507 1507 1507 1507 1507 1508 1508 1509 1509 1510 1510
1539 1543 1547 1552 1552 1553 1556 1557 1557 1559 1562 1568 1569 1567 1563 1560 1557 1554 1550 1545 1542 1538 1535 1532 1528 1525 1523 1520 1518 1516 1514 1512 1511 1510 1509 1509 1509 1509 1509 1509 1509 1509 1509 1509
1539 1543 1546 1551 1551 1552 1555 1557 1558 1560 1561 1564 1564 1564 1561 1560 1558 1555 1551 1548 1545 1543 1540 1537 1534 1531 1528 1525 1523 1520 1519 1517 1515 1514 1513 1512 1511 1511 1510 1509 1509 1509 1509 1508
1540 1541 1545 1547 1548 1551 1556 1557 1559 1560 1561 1562 1564 1564 1560 1559 1558 1557 1554 1551 1549 1546 1544 1541 1538 1535 1533 1530 1528 1525 1524 1522 1520 1518 1516 1515 1513 1512 1511 1510 1510 1509 1509 1508
1542 1542 1543 1542 1547 1558 1560 1555 1557 1559 1560 1560 1560 1560 1560 1559 1559 1558 1556 1554 1552 1549 1547 1544 1541 1539 1537 1535 1532 1530 1528 1526 1524 1522 1520 1518 1516 1515 1514 1512 1511 1510 1509 1509
1544 1545 1545 1542 1545 1552 1556 1554 1556 1557 1559 1559 1559 1559 1558 1557 1558 1558 1557 1556 1554 1552 1550 1548 1545 1543 1541 1538 1536 1534 1532 1530 1528 1526 1524 1522 1520 1518 1516 1515 1514 1512 1511 1510
1546 1546 1547 1545 1547 1551 1552 1551 1554 1558 1559 1559 1559 1559 1558 1557 1559 1561 1559 1558 1556 1554 1552 1550 1548 1546 1544 1542 1540 1538 1535 1533 1531 1529 1527 1525 1523 1521 1519 1518 1516 1515 1513 1512
1543 1544 1547 1545 1545 1547 1549 1552 1556 1562 1560 1558 1559 1560 1560 1560 1562 1562 1560 1559 1557 1556 1554 1552 1550 1548 1546 1544 1542 1540 1538 1536 1534 1532 1530 1528 1526 1524 1522 1520 1519 1517 1515 1514
1539 1540 1541 1543 1547 1553 1549 1552 1554 1555 1556 1558 1559 1561 1562 1562 1562 1562 1561 1560 1558 1557 1555 1553 1552 1550 1548 1546 1544 1542 1540 1539 1537 1535 1533 1531 1529 1527 1525 1523 1521 1519 1518 1517
1538 1538 1539 1540 1548 1546 1548 1550 1552 1554 1556 1558 1560 1562 1562 1563 1563 1562 1561 1560 1559 1557 1556 1554 1553 1551 1549 1547 1546 1544 1542 1540 1539 1537 1535 1534 1532 1529 1527 1525 1523 1522 1520 1519
1531 1535 1539 1540 1542 1545 1548 1550 1552 1554 1556 1558 1560 1562 1562 1563 1563 1562 1561 1560 1559 1558 1556 1555 1553 1551 1550 1548 1546 1545 1543 1542 1540 1539 1537 1536 1534 1532 1530 1527 1526 1524 1523 1521
1531 1536 1538 1538 1539 1544 1547 1549 1551 1554 1556 1558 1560 1561 1562 1562 1562 1562 1561 1560 1559 1558 1556 1555 1553 1551 1550 1549 1547 1545 1544 1543 1542 1541 1539 1538 1536 1535 1533 1531 1529 1528 1526 1525
1528 1532 1536 1536 1535 1539 1543 1546 1549 1553 1555 1557 1559 1561 1561 1562 1562 1562 1561 1560 1559 1558 1556 1555 1553 1551 1550 1549 1548 1546 1545 1544 1543 1542 1541 1540 1538 1537 1535 1534 1533 1531 1530 1529